Weather History for Fairfield, IL

Change the Weather History Date:

Saturday, January 18, 2014

  Actual Average (KMVN) Record (KMVN)
Temperature  
Mean Temperature 27 °F -  
Max Temperature 37 °F 36 °F 61 °F (2002)
Min Temperature 17 °F 21 °F 3 °F (1997)
Degree Days  
Heating Degree Days 38    
Moisture  
Dew Point 22 °F    
Average Humidity 74    
Maximum Humidity 93    
Minimum Humidity 48    
Precipitation  
Precipitation 0.00 in - - ()
Sea Level Pressure  
Sea Level Pressure 29.88 in    
Wind  
Wind Speed 7 mph (SSW)    
Max Wind Speed 21 mph    
Max Gust Speed 31 mph    
Visibility 10 miles    
Events Rain , Snow    
Averages and records for this station are not official NWS values.
T = Trace of Precipitation, MM = Missing Value Source: NWS Daily Summary

Daily Weather History Graph

Daily Weather History Graph

Search for Another Location

Airport:

Trip Planner

Search our weather history database for the weather conditions in past years. The results will help you decide how hot, cold, wet, or windy it might be!

Date:

Astronomy

Jan. 18, 2014 Rise Set
Actual Time 7:08 AM CST 5:00 PM CST
Civil Twilight 6:39 AM CST 5:29 PM CST
Nautical Twilight 6:07 AM CST 6:01 PM CST
Astronomical Twilight 5:35 AM CST 6:33 PM CST
Moon 7:39 PM CST 8:10 AM CST
Length of Visible Light 10h 49m
Length of Day
9h 52m
Waning Gibbous, 94% of the Moon is Illuminated
Jan 18
Waning Gibbous
Jan 23
Last Quarter
Jan 30
New
Feb 6
First Quarter
Feb 14
Full

Hourly Weather History & Observations

Time (CST) Temp. Windchill Dew Point Humidity Pressure Visibility Wind Dir Wind Speed Gust Speed Precip Events Conditions
12:15 AM 19.4 °F 12.8 °F 12.2 °F 74% 30.08 in 10.0 mi SW 4.6 mph - N/A   Unknown
12:35 AM 19.4 °F 14.3 °F 12.2 °F 74% 30.08 in 10.0 mi SSW 3.5 mph - N/A   Unknown
12:55 AM 19.4 °F 12.8 °F 12.2 °F 74% 30.07 in 10.0 mi SW 4.6 mph - N/A   Clear
1:15 AM 17.6 °F 10.7 °F 12.2 °F 79% 30.08 in 10.0 mi SW 4.6 mph - N/A   Clear
1:35 AM 17.6 °F 12.3 °F 12.2 °F 79% 30.08 in 10.0 mi WSW 3.5 mph - N/A   Clear
1:55 AM 17.6 °F 10.7 °F 12.2 °F 79% 30.08 in 10.0 mi SW 4.6 mph - N/A   Clear
2:15 AM 17.6 °F 12.3 °F 12.2 °F 79% 30.08 in 10.0 mi SW 3.5 mph - N/A   Clear
2:35 AM 17.6 °F - 12.2 °F 79% 30.07 in 10.0 mi Calm Calm - N/A   Clear
2:55 AM 17.6 °F 10.7 °F 12.2 °F 79% 30.06 in 10.0 mi SSW 4.6 mph - N/A   Clear
3:15 AM 17.6 °F 12.3 °F 12.2 °F 79% 30.06 in 10.0 mi SSW 3.5 mph - N/A   Clear
3:35 AM 17.6 °F 12.3 °F 12.2 °F 79% 30.06 in 10.0 mi SSW 3.5 mph - N/A   Clear
3:55 AM 17.6 °F 10.7 °F 12.2 °F 79% 30.06 in 10.0 mi SW 4.6 mph - N/A   Clear
4:15 AM 17.6 °F 12.3 °F 12.2 °F 79% 30.07 in 10.0 mi WSW 3.5 mph - N/A   Clear
4:35 AM 17.6 °F - 12.2 °F 79% 30.06 in 10.0 mi Calm Calm - N/A   Clear
4:55 AM 17.6 °F 12.3 °F 12.2 °F 79% 30.04 in 10.0 mi South 3.5 mph - N/A   Clear
5:15 AM 17.6 °F 10.7 °F 14.0 °F 86% 30.04 in 10.0 mi South 4.6 mph - N/A   Clear
5:35 AM 17.6 °F 12.3 °F 12.2 °F 79% 30.04 in 10.0 mi South 3.5 mph - N/A   Clear
5:55 AM 17.6 °F 9.3 °F 14.0 °F 86% 30.03 in 10.0 mi South 5.8 mph - N/A   Mostly Cloudy
6:15 AM 19.4 °F 10.4 °F 15.8 °F 86% 30.01 in 10.0 mi South 6.9 mph - N/A   Overcast
6:35 AM 19.4 °F 10.4 °F 15.8 °F 86% 30.01 in 10.0 mi South 6.9 mph - N/A   Overcast
6:55 AM 21.2 °F 12.6 °F 15.8 °F 80% 30.00 in 10.0 mi South 6.9 mph - N/A   Overcast
7:15 AM 21.2 °F 11.7 °F 15.8 °F 80% 29.99 in 10.0 mi South 8.1 mph - N/A   Overcast
7:35 AM 21.2 °F 10.9 °F 15.8 °F 80% 29.99 in 10.0 mi South 9.2 mph - N/A   Overcast
7:55 AM 21.2 °F 10.1 °F 15.8 °F 80% 29.98 in 10.0 mi South 10.4 mph - N/A   Overcast
8:15 AM 23.0 °F 13.1 °F 15.8 °F 74% 29.97 in 10.0 mi South 9.2 mph - N/A   Mostly Cloudy
8:35 AM 24.8 °F 15.3 °F 17.6 °F 74% 29.96 in 10.0 mi South 9.2 mph - N/A   Mostly Cloudy
8:55 AM 24.8 °F 14.6 °F 17.6 °F 74% 29.95 in 10.0 mi South 10.4 mph - N/A   Overcast
9:15 AM 26.6 °F 16.2 °F 17.6 °F 69% 29.94 in 10.0 mi South 11.5 mph - N/A   Scattered Clouds
9:35 AM 26.6 °F 16.2 °F 17.6 °F 69% 29.92 in 10.0 mi South 11.5 mph - N/A   Scattered Clouds
9:55 AM 26.6 °F 14.3 °F 17.6 °F 69% 29.91 in 10.0 mi SSE 16.1 mph - N/A   Scattered Clouds
10:15 AM 28.4 °F 17.5 °F 17.6 °F 64% 29.89 in 10.0 mi South 13.8 mph 21.9 mph N/A   Mostly Cloudy
10:35 AM 28.4 °F 16.2 °F 17.6 °F 64% 29.87 in 10.0 mi South 17.3 mph 23.0 mph N/A   Overcast
10:55 AM 28.4 °F 15.1 °F 17.6 °F 64% 29.84 in 10.0 mi SSE 20.7 mph 25.3 mph N/A   Scattered Clouds
11:15 AM 30.2 °F 18.5 °F 17.6 °F 60% 29.80 in 10.0 mi SSE 17.3 mph - N/A   Scattered Clouds
11:35 AM 30.2 °F 17.8 °F 17.6 °F 60% 29.77 in 10.0 mi South 19.6 mph 25.3 mph N/A   Scattered Clouds
11:55 AM 32.0 °F 21.2 °F 17.6 °F 55% 29.76 in 10.0 mi South 16.1 mph 26.5 mph N/A   Mostly Cloudy
12:15 PM 33.8 °F 24.3 °F 17.6 °F 52% 29.75 in 10.0 mi South 13.8 mph 24.2 mph N/A   Scattered Clouds
12:35 PM 33.8 °F 23.9 °F 17.6 °F 52% 29.74 in 10.0 mi South 15.0 mph - N/A   Scattered Clouds
12:55 PM 35.6 °F 26.6 °F 19.4 °F 52% 29.72 in 10.0 mi South 13.8 mph 20.7 mph N/A   Scattered Clouds
1:15 PM 35.6 °F 26.2 °F 19.4 °F 52% 29.71 in 10.0 mi South 15.0 mph - N/A   Scattered Clouds
1:35 PM 35.6 °F 27.5 °F 19.4 °F 52% 29.71 in 10.0 mi South 11.5 mph - N/A   Clear
1:55 PM 37.4 °F 29.3 °F 19.4 °F 48% 29.71 in 10.0 mi SSW 12.7 mph - N/A   Clear
2:15 PM 37.4 °F 29.8 °F 19.4 °F 48% 29.72 in 10.0 mi SW 11.5 mph 19.6 mph N/A   Scattered Clouds
2:35 PM 37.4 °F 27.8 °F 24.8 °F 60% 29.73 in 3.0 mi SW 17.3 mph 31.1 mph N/A Snow Light Snow
2:55 PM 35.6 °F 26.2 °F 28.4 °F 75% 29.74 in 2.0 mi WSW 15.0 mph 21.9 mph N/A Snow Light Snow
3:15 PM 33.8 °F 24.8 °F 30.2 °F 87% 29.74 in 4.0 mi SW 12.7 mph 17.3 mph N/A Snow Light Snow
3:35 PM 35.6 °F 28.6 °F 30.2 °F 81% 29.74 in 10.0 mi SW 9.2 mph 16.1 mph N/A   Light Drizzle
3:55 PM 35.6 °F 29.2 °F 28.4 °F 75% 29.74 in 10.0 mi SW 8.1 mph - N/A   Overcast
4:15 PM 37.4 °F 31.4 °F 28.4 °F 70% 29.75 in 10.0 mi SW 8.1 mph - N/A   Overcast
4:35 PM 37.4 °F 32.8 °F 28.4 °F 70% 29.75 in 10.0 mi SW 5.8 mph - N/A   Overcast
4:55 PM 37.4 °F 32.8 °F 28.4 °F 70% 29.76 in 10.0 mi SW 5.8 mph - N/A   Overcast
5:15 PM 37.4 °F 32.8 °F 28.4 °F 70% 29.77 in 10.0 mi SSW 5.8 mph - N/A   Overcast
5:35 PM 37.4 °F 32.8 °F 26.6 °F 65% 29.77 in 10.0 mi SW 5.8 mph - N/A   Overcast
5:55 PM 37.4 °F 32.8 °F 28.4 °F 70% 29.78 in 10.0 mi SW 5.8 mph - N/A   Mostly Cloudy
6:15 PM 37.4 °F 33.8 °F 28.4 °F 70% 29.77 in 10.0 mi SW 4.6 mph - N/A Rain Light Rain
6:35 PM 37.4 °F 32.1 °F 28.4 °F 70% 29.77 in 10.0 mi SSW 6.9 mph - N/A   Mostly Cloudy
6:55 PM 37.4 °F 33.8 °F 28.4 °F 70% 29.78 in 10.0 mi SSW 4.6 mph - N/A   Overcast
7:15 PM 37.4 °F 33.8 °F 28.4 °F 70% 29.78 in 10.0 mi SSW 4.6 mph - N/A   Overcast
7:35 PM 37.4 °F 32.1 °F 28.4 °F 70% 29.79 in 10.0 mi SW 6.9 mph - N/A   Light Drizzle
7:55 PM 37.4 °F 29.3 °F 30.2 °F 75% 29.80 in 10.0 mi WSW 12.7 mph 19.6 mph N/A Rain Light Rain
8:15 PM 37.4 °F 30.8 °F 32.0 °F 81% 29.80 in 10.0 mi WSW 9.2 mph - N/A Rain Light Rain
8:35 PM 37.4 °F 32.1 °F 33.8 °F 87% 29.80 in 10.0 mi WSW 6.9 mph - N/A Rain Light Rain
8:55 PM 37.4 °F 32.1 °F 33.8 °F 87% 29.80 in 10.0 mi WSW 6.9 mph - N/A Rain Rain
9:15 PM 37.4 °F 31.4 °F 33.8 °F 87% 29.81 in 10.0 mi WSW 8.1 mph - N/A Rain Rain
9:35 PM 37.4 °F 32.8 °F 35.6 °F 93% 29.81 in 10.0 mi West 5.8 mph - N/A   Light Drizzle
9:55 PM 37.4 °F 32.1 °F 35.6 °F 93% 29.82 in 10.0 mi West 6.9 mph 17.3 mph N/A   Overcast
10:15 PM 37.4 °F 30.8 °F 35.6 °F 93% 29.83 in 4.0 mi West 9.2 mph 16.1 mph N/A   Drizzle
10:35 PM 35.6 °F 29.2 °F 33.8 °F 93% 29.83 in 7.0 mi West 8.1 mph - N/A   Unknown
10:55 PM 35.6 °F 30.7 °F 33.8 °F 93% 29.84 in 10.0 mi WNW 5.8 mph 19.6 mph N/A   Overcast
11:15 PM 35.6 °F 28.0 °F 33.8 °F 93% 29.85 in 10.0 mi West 10.4 mph - N/A   Overcast
11:35 PM 35.6 °F 27.5 °F 33.8 °F 93% 29.86 in 10.0 mi WNW 11.5 mph 20.7 mph N/A   Overcast
11:55 PM 35.6 °F 27.1 °F 32.0 °F 87% 29.88 in 10.0 mi WNW 12.7 mph 24.2 mph N/A   Overcast